User: anonymous   Login
Location: Trois-Rivi�res
(46.3500°N, 72.5500°W)
Time: 20:23:03
(UTC-05:00)
Language:

Cosmos 1975 - Orbit

View from above orbital plane
View from above orbital plane
View from above satellite
View from above satellite

Ground track
Ground track

The orbit data is extracted from the following two-line orbital elements,

1 19573U 88093A   14328.52014755  .00003062  00000-0  23568-3 0  3723
2 19573 082.5208 169.4052 0014155 238.2201 121.7646 15.01281741419240
Epoch (UTC): 24 November 2014 12:29:00
Eccentricity: 0.0014155
inclination: 82.5208°
perigee height: 553 km
apogee height: 573 km
right ascension of ascending node: 169.4052°
argument of perigee: 238.2201°
revolutions per day: 15.01281741
mean anomaly at epoch: 121.7646°
orbit number at epoch: 41924

The dashed part of the orbit path shows where the satellite is in the earth's shadow,  

DLR